• în Republica Moldova
  • Lista ţărilor
  • Pe 7 zile
  • Temperatura apei
  • Hartă satelitară
  • Meteo pe hartă
  • Widget-uri
  • user-avatar
    Intrare

    Meteo pe oră la Newcastle

    Astăzi, 27 Iunie, Marţi

    Timp Temperatura Precipitaţii Vânt Presiune Umiditate
    00:00 +8°C° 0 mm 1 m/s 768 mmHg 85%
    01:00 +7°C° 0 mm 2 m/s 768 mmHg 80%
    02:00 +8°C° 0 mm 1 m/s 768 mmHg 82%
    03:00 +8°C° 0 mm 1 m/s 768 mmHg 83%
    04:00 +6°C° 0 mm 2 m/s 767 mmHg 85%
    05:00 +6°C° 0 mm 2 m/s 768 mmHg 87%
    06:00 +5°C° 0 mm 2 m/s 768 mmHg 89%
    07:00 +5°C° 0 mm 2 m/s 768 mmHg 91%
    08:00 +8°C° 0 mm 2 m/s 768 mmHg 81%
    09:00 +12°C° 0 mm 2 m/s 768 mmHg 70%
    10:00 +16°C° 0 mm 2 m/s 768 mmHg 53%
    11:00 +17°C° 0 mm 2 m/s 768 mmHg 52%
    12:00 +18°C° 0 mm 2 m/s 768 mmHg 51%
    13:00 +19°C° 0 mm 2 m/s 767 mmHg 50%
    14:00 +18°C° 0 mm 2 m/s 767 mmHg 56%
    15:00 +18°C° 0 mm 1 m/s 767 mmHg 63%
    16:00 +16°C° 0 mm 1 m/s 767 mmHg 70%
    17:00 +14°C° 0 mm 1 m/s 767 mmHg 79%
    18:00 +12°C° 0 mm 1 m/s 767 mmHg 87%
    19:00 +10°C° 0 mm 1 m/s 767 mmHg 96%
    20:00 +10°C° 0 mm 1 m/s 767 mmHg 96%
    21:00 +9°C° 0 mm 2 m/s 767 mmHg 96%
    22:00 +9°C° 0 mm 2 m/s 767 mmHg 94%
    23:00 +9°C° 0 mm 2 m/s 767 mmHg 94%

    Mâine, 28 Iunie, Miercuri

    Timp Temperatura Precipitaţii Vânt Presiune Umiditate
    00:00 +10°C° 0 mm 2 m/s 767 mmHg 94%
    01:00 +10°C° 0 mm 2 m/s 767 mmHg 94%
    02:00 +9°C° 0 mm 2 m/s 766 mmHg 95%
    03:00 +9°C° 0 mm 2 m/s 766 mmHg 96%
    04:00 +9°C° 0 mm 2 m/s 766 mmHg 96%
    05:00 +9°C° 0,1 mm 2 m/s 766 mmHg 95%
    06:00 +9°C° 0,1 mm 2 m/s 766 mmHg 94%
    07:00 +9°C° 0,1 mm 2 m/s 766 mmHg 93%
    08:00 +12°C° 0 mm 2 m/s 766 mmHg 85%
    09:00 +14°C° 0 mm 2 m/s 766 mmHg 78%
    10:00 +15°C° 0 mm 2 m/s 766 mmHg 70%
    11:00 +15°C° 0,4 mm 2 m/s 766 mmHg 78%
    12:00 +14°C° 0,4 mm 2 m/s 765 mmHg 86%
    13:00 +14°C° 0,4 mm 2 m/s 765 mmHg 94%
    14:00 +13°C° 0,5 mm 2 m/s 765 mmHg 95%
    15:00 +13°C° 0,5 mm 2 m/s 764 mmHg 96%
    16:00 +13°C° 0,5 mm 2 m/s 764 mmHg 97%
    17:00 +12°C° 0,1 mm 2 m/s 764 mmHg 97%
    18:00 +12°C° 0,1 mm 2 m/s 764 mmHg 98%
    19:00 +11°C° 0,1 mm 3 m/s 765 mmHg 98%
    20:00 +10°C° 0 mm 3 m/s 765 mmHg 98%
    21:00 +10°C° 0 mm 3 m/s 765 mmHg 98%
    22:00 +9°C° 0 mm 3 m/s 765 mmHg 98%
    23:00 +10°C° 0 mm 3 m/s 765 mmHg 98%

    Poimâine, 29 Iunie, Joi

    Timp Temperatura Precipitaţii Vânt Presiune Umiditate
    00:00 +10°C° 0 mm 3 m/s 764 mmHg 97%
    01:00 +10°C° 0 mm 3 m/s 764 mmHg 97%
    02:00 +10°C° 0,1 mm 3 m/s 764 mmHg 97%
    03:00 +9°C° 0,1 mm 3 m/s 764 mmHg 97%
    04:00 +9°C° 0,1 mm 3 m/s 764 mmHg 97%
    05:00 +9°C° 0,1 mm 3 m/s 764 mmHg 97%
    06:00 +9°C° 0,1 mm 2 m/s 764 mmHg 96%
    07:00 +9°C° 0,1 mm 2 m/s 764 mmHg 96%
    08:00 +10°C° 1 mm 2 m/s 764 mmHg 95%
    09:00 +10°C° 1 mm 2 m/s 764 mmHg 94%
    10:00 +12°C° 1 mm 2 m/s 764 mmHg 93%
    11:00 +13°C° 0,3 mm 2 m/s 764 mmHg 89%
    12:00 +13°C° 0,3 mm 2 m/s 763 mmHg 85%
    13:00 +13°C° 0,3 mm 3 m/s 763 mmHg 81%
    14:00 +13°C° 0 mm 3 m/s 763 mmHg 82%
    15:00 +13°C° 0 mm 3 m/s 763 mmHg 82%
    16:00 +13°C° 0 mm 3 m/s 763 mmHg 83%
    17:00 +12°C° 0 mm 3 m/s 763 mmHg 85%
    18:00 +12°C° 0 mm 3 m/s 764 mmHg 87%
    19:00 +11°C° 0 mm 3 m/s 764 mmHg 90%
    20:00 +11°C° 0 mm 3 m/s 764 mmHg 90%
    21:00 +10°C° 0 mm 3 m/s 764 mmHg 90%
    22:00 +9°C° 0 mm 3 m/s 765 mmHg 90%
    23:00 +8°C° 0 mm 4 m/s 765 mmHg 88%

    30 Iunie, Vineri

    Timp Temperatura Precipitaţii Vânt Presiune Umiditate
    00:00 +7°C° 0 mm 4 m/s 765 mmHg 87%
    01:00 +7°C° 0 mm 5 m/s 765 mmHg 85%
    02:00 +6°C° 0 mm 5 m/s 765 mmHg 86%
    03:00 +6°C° 0 mm 5 m/s 765 mmHg 87%
    04:00 +6°C° 0 mm 5 m/s 765 mmHg 88%
    05:00 +6°C° 0 mm 5 m/s 766 mmHg 88%
    06:00 +6°C° 0 mm 5 m/s 767 mmHg 88%
    07:00 +5°C° 0 mm 6 m/s 767 mmHg 88%
    08:00 +7°C° 0 mm 6 m/s 768 mmHg 79%
    09:00 +9°C° 0 mm 7 m/s 768 mmHg 71%
    10:00 +11°C° 0 mm 7 m/s 769 mmHg 62%
    11:00 +11°C° 0 mm 7 m/s 769 mmHg 57%
    12:00 +12°C° 0 mm 7 m/s 768 mmHg 53%
    13:00 +12°C° 0 mm 7 m/s 768 mmHg 49%
    14:00 +13°C° 0 mm 6 m/s 768 mmHg 51%
    15:00 +11°C° 0 mm 6 m/s 769 mmHg 54%
    16:00 +11°C° 0 mm 6 m/s 769 mmHg 57%
    17:00 +9°C° 0 mm 6 m/s 769 mmHg 63%
    18:00 +7°C° 0 mm 6 m/s 770 mmHg 69%
    19:00 +5°C° 0 mm 6 m/s 771 mmHg 75%
    20:00 +6°C° 0 mm 5 m/s 771 mmHg 75%
    21:00 +6°C° 0 mm 5 m/s 771 mmHg 74%
    22:00 +6°C° 0 mm 5 m/s 772 mmHg 73%
    23:00 +6°C° 0 mm 5 m/s 772 mmHg 74%

    1 Iulie, Sâmbătă

    Timp Temperatura Precipitaţii Vânt Presiune Umiditate
    00:00 +5°C° 0 mm 5 m/s 772 mmHg 75%
    01:00 +5°C° 0 mm 4 m/s 771 mmHg 76%
    02:00 +5°C° 0 mm 4 m/s 771 mmHg 76%
    03:00 +5°C° 0 mm 4 m/s 771 mmHg 76%
    04:00 +3°C° 0 mm 5 m/s 771 mmHg 77%
    05:00 +4°C° 0 mm 4 m/s 772 mmHg 77%
    06:00 +4°C° 0 mm 4 m/s 772 mmHg 77%
    07:00 +3°C° 0 mm 4 m/s 772 mmHg 77%
    08:00 +5°C° 0 mm 4 m/s 772 mmHg 71%
    09:00 +7°C° 0 mm 4 m/s 772 mmHg 65%
    10:00 +10°C° 0 mm 4 m/s 773 mmHg 59%
    11:00 +12°C° 0 mm 4 m/s 772 mmHg 57%
    12:00 +13°C° 0 mm 3 m/s 771 mmHg 55%
    13:00 +16°C° 0 mm 3 m/s 771 mmHg 53%
    14:00 +14°C° 0 mm 3 m/s 770 mmHg 59%
    15:00 +14°C° 0 mm 3 m/s 770 mmHg 64%
    16:00 +14°C° 0 mm 2 m/s 770 mmHg 70%
    17:00 +10°C° 0 mm 2 m/s 770 mmHg 78%
    18:00 +7°C° 0 mm 2 m/s 771 mmHg 87%
    19:00 +4°C° 0 mm 2 m/s 771 mmHg 96%
    20:00 +5°C° 0 mm 1 m/s 771 mmHg 96%
    21:00 +5°C° 0 mm 1 m/s 771 mmHg 96%
    22:00 +5°C° 0 mm 1 m/s 771 mmHg 96%
    23:00 +6°C° 0 mm 1 m/s 771 mmHg 96%

    2 Iulie, Duminică

    Timp Temperatura Precipitaţii Vânt Presiune Umiditate
    00:00 +6°C° 0 mm 1 m/s 771 mmHg 96%
    01:00 +6°C° 0 mm 1 m/s 770 mmHg 96%
    02:00 +6°C° 0 mm 1 m/s 770 mmHg 96%
    03:00 +5°C° 0 mm 2 m/s 770 mmHg 96%
    04:00 +5°C° 0 mm 2 m/s 770 mmHg 97%
    05:00 +5°C° 0 mm 2 m/s 770 mmHg 96%
    06:00 +5°C° 0 mm 2 m/s 770 mmHg 96%
    07:00 +5°C° 0 mm 2 m/s 770 mmHg 96%
    08:00 +8°C° 0 mm 2 m/s 770 mmHg 85%
    09:00 +10°C° 0 mm 2 m/s 770 mmHg 75%
    10:00 +14°C° 0 mm 2 m/s 770 mmHg 64%
    11:00 +15°C° 0 mm 2 m/s 769 mmHg 58%
    12:00 +17°C° 0 mm 2 m/s 768 mmHg 52%
    13:00 +18°C° 0 mm 3 m/s 767 mmHg 46%
    14:00 +17°C° 0 mm 3 m/s 767 mmHg 52%
    15:00 +17°C° 0 mm 3 m/s 767 mmHg 58%
    16:00 +16°C° 0 mm 2 m/s 767 mmHg 64%
    17:00 +13°C° 0 mm 3 m/s 767 mmHg 70%
    18:00 +11°C° 0 mm 3 m/s 767 mmHg 77%
    19:00 +10°C° 0 mm 3 m/s 767 mmHg 83%
    20:00 +10°C° 0 mm 4 m/s 767 mmHg 86%
    21:00 +8°C° 0 mm 4 m/s 767 mmHg 88%
    22:00 +8°C° 0 mm 4 m/s 767 mmHg 90%
    23:00 +8°C° 0 mm 5 m/s 766 mmHg 88%
    Arată mai mult